RADARSAT

Satellite information

Favourite Embed

Satellite Type and Status

PAYLOADIN ORBIT

Key statistics

Satellite RADARSAT at a glance.

Uptime

10776

Days in orbit

Revolutions

≈ 14.3

Per day

Orbit

SSO

Sun Synchronous Orbit

Inclination

98.6

Latest

Satellite identification and parameters

Extended collection of information and parameters for RADARSAT.

Object identification

Identified? True

Debris? False

Object name: RADARSAT

International designator: 1995-059A

Object number (NORAD): 23710

Object ID (CCSDS): 23710

Country: CANADA (CA)

Current information (Y/N): Y

RCS size: LARGE

Orbital parameters

Period: 100.551 minutes

Inclination: 98.5509 deg

SMA: 7162.816 km

Apoapsis: 785.662 km

Periapsis: 783.7 km

RAAN: 134.677 deg

Eccentricy: 0.000137

Argument of periapsis: 104.6729 deg

Mean anomaly: 255.4606 deg

Mean motion: 14.32112325 rev/day

Mean motion (dot): 0.00000417 rev/day2

B* drag term: 0.00017124 1/REarth

Two-line elements (TLE)

Creation date: May 5, 2025, 2:11 a.m.

Reference frame: TEME

Reference center: EARTH

Epoch: May 4, 2025, 11:23 p.m. UTC

TLE line 0: 0 RADARSAT

TLE line 1: 1 23710U 95059A 25124.97472505 .00000417 00000-0 17124-3 0 9994

TLE line 2: 2 23710 98.5509 134.6770 0001370 104.6729 255.4606 14.32112325539918

Live tracking on map

Real-time ground track for satellite RADARSAT.

In-orbit conjunctions

A list of the most updated potential collisions computed for object RADARSAT.

Target Orbit TCA Probability of collision Miss distance Type
COSMOS 1275 DEB LEO 2025-04-12 03:22:43 0.0001298519 199.0 (m) DEBRIS
METEOR 2-5 DEB LEO 2025-03-14 16:11:29 0.001121781 107.0 (m) DEBRIS
CZ-6A DEB LEO 2025-02-22 19:55:36 0.0002258384 610.0 (m) DEBRIS
METEOR 2-5 DEB LEO 2025-02-12 21:47:05 0.0003080291 421.0 (m) DEBRIS
CZ-6A DEB LEO 2025-01-02 22:12:13 0.0007097949 494.0 (m) DEBRIS

Associated space launch

Radarsat 1, a Canadian-led international program and a major part of the overall Canadian Space Agency (CSA) program, is Canada's first remote-sensing satellite.

RADARSAT was lifted into orbit during the mission ‘Delta II | Radarsat’, on board a Delta II space rocket.

The launch took place on Nov. 4, 1995, 2:22 p.m. from Space Launch Complex 2W.

For more information about the launch, click the button.

Launch to space Delta II | Radarsat
Delta II | Radarsat

Agency: N/A

Status: Launch Successful

Launch date: Nov. 4, 1995, 2:22 p.m. UTC

Rocket: Delta II

Launch pad: Space Launch Complex 2W

Location: Vandenberg SFB, CA, USA

...

Latest news about this satellite

There are no fresh news available about this satellite. Check back as we update our databases every day.


Newsletter sign-up

Weekly statistics, charts and insights to help you stay on top of the space industry.